Location: Ebendorf
(52.1827°N, 11.5706°E)
Time: 09:13:02
(UTC+00:00)

Cosmos 1726 - Pass Details

Date: 15 May 2021
Orbit: 478 x 498 km, 82.5° (Epoch: 20 June)

Event Time Altitude Azimuth Distance (km) Brightness Sun altitude
Rises 01:36:35 0° 329° (NNW) 2,587 6.1 -12.1°
Reaches altitude 10° 01:40:46 10° 283° (WNW) 1,688 4.6 -11.7°
Maximum altitude 01:41:04 10° 279° (W) 1,682 4.5 -11.7°
Drops below altitude 10° 01:41:22 10° 274° (W) 1,686 4.5 -11.7°
Enters shadow 01:42:09 - 262° (W) 1,742 4.5 -11.6°
